C/2017 U2 ( Fuls )

Japanese version
Home page
Updated on February 13, 2018

---------------------------------------------------------------------

* Profile

Discovery Date October 22, 2017
Magnitude 21.2 mag
Discoverer D. C. Fuls (Mount Lemmon)

* Orbital Elements

Epoch 2017 Sept. 4.0 TT = JDT 2458000.5
T 2017 Aug. 29.32975 TT                                 MPCW
q   6.7018984            (2000.0)            P               Q
z  -0.0001868      Peri.  147.82277     +0.75630141     +0.41933697
 +/-0.0002064      Node   149.70629     -0.56259706     +0.02511881
e   1.0012519      Incl.   95.44113     +0.33390526     -0.90748308
From 45 observations 2017 Sept. 8-Oct. 28, mean residual 0".5.

* Magnitudes Graph

        m1 = 8.5 + 5 log d + 10.0 log r

---------------------------------------------------------------------

The orbital elements are published on M.P.E.C. 2018-B155.
The magnitudes graphs are made with Comet for Windows.

---------------------------------------------------------------------

Copyright(C) Seiichi Yoshida (comet@aerith.net). All rights reserved.